Regional Weather Roundup
Issued by NWS Cleveland, OH

Home | Current Version | Previous Version | Text Only | Print | Product List | Glossary On
Versions: 1 2 3 4 5 6 7 8 9 10 11 12 13 14 15 16 17 18 19 20 21 22 23 24 25 26 27 28 29 30 31 32 33 34 35 36 37 38 39 40 41 42 43 44 45 46 47 48 49 50
000
ASUS41 KCLE 191212
RWRCLE
OHIO REGIONAL WEATHER ROUNDUP
NATIONAL WEATHER SERVICE WILMINGTON, OH
800 AM EDT THU OCT 19 2017

NOTE: "FAIR" INDICATES FEW OR NO CLOUDS BELOW 12,000 FEET WITH NO
SIGNIFICANT WEATHER AND/OR OBSTRUCTIONS TO VISIBILITY.

OHZ001>008-015>018-024>027-034-035-043-044-191300-
   NORTHWEST OHIO

CITY           SKY/WX    TMP DP  RH WIND       PRES   REMARKS
DEFIANCE       FAIR      50  44  80 S8        30.12R
FINDLAY        FAIR      50  43  77 SW8       30.13S
TOLEDO EXPRESS FAIR      53  47  79 SW13      30.10R
TOLEDO EXEC    FAIR      52  45  77 SW9       30.12R
LIMA           FAIR      52  45  77 SW8       30.15S
$$

OHZ009>014-019>023-028>033-038-089-191300-
   NORTHEAST OHIO

CITY           SKY/WX    TMP DP  RH WIND       PRES   REMARKS
CLE-HOPKINS    FAIR      54  44  69 S12G20    30.16R
CLE-LAKEFRONT  FAIR      56  43  61 S14       30.12S
CUY CO. ARPT   PTCLDY    55  45  67 SW13      30.14
LORAIN-ELYRIA  FAIR      50  40  68 S9        30.14S
ASHTABULA      FAIR      49  43  80 S9        30.15S
AKRON-CANTON   FAIR      49  41  74 SW9       30.17S
WOOSTER        FAIR      47  43  86 S5        30.18S
MANSFIELD      FAIR      49  44  83 S8        30.17R
YOUNGSTOWN     FAIR      48  41  76 S8        30.16S
$$

OHZ042-051>053-060>062-070>072-077>081-191300-
  SOUTHWEST OHIO

CITY           SKY/WX    TMP DP  RH WIND       PRES   REMARKS
CINC-COVINGTON FAIR      47  45  93 S8        30.22S
CINC-LUNKEN    FAIR      43  43 100 CALM      30.25R
HAMILTON       FAIR      39  38  96 CALM      30.23R
DAYTON         FAIR      50  46  86 SW12      30.20R
WRIGHT-PAT AFB FAIR      45  44  95 CALM      30.19S
DAYTON GENERAL FAIR      45  42  89 S5        30.20S
WILMINGTON     FAIR      47  43  86 SW5       30.22S
$$

OHZ036-037-039>041-045>050-054>059-063>069-073>076-082>088-191300-
  CENTRAL AND SOUTHEAST OHIO

CITY           SKY/WX    TMP DP  RH WIND       PRES   REMARKS
COLUMBUS       FAIR      49  43  80 S3        30.21R
OSU AIRPORT    FAIR      46  44  93 SE3       30.20R
BOLTON FIELD   CLEAR     43  43 100 S5        30.21S
RICKENBACK AFB FAIR      45  43  92 SW7       30.21R
NEWARK         FAIR      38  36  92 CALM      30.21S
MARION         FAIR      47  42  83 S8        30.17F
LANCASTER      FAIR      41  39  93 CALM      30.22S
ZANESVILLE     FAIR      39  36  89 CALM      30.21F
NEW PHILLY     FAIR      42  40  92 SE5       30.21S
$$



USA.gov is the U.S. government's official web portal to all federal, state and local government web resources and services.